TimeEDT,TemperatureF,Dew PointF,Humidity,Sea Level PressureIn,VisibilityMPH,Wind Direction,Wind SpeedMPH,Gust SpeedMPH,PrecipitationIn,Events,Conditions,WindDirDegrees,DateUTC
12:51 AM,66.9,66.0,97,29.91,5.0,Calm,Calm,-,N/A,,Clear,0,2012-09-06 04:51:00
1:51 AM,66.9,66.0,97,29.91,5.0,Calm,Calm,-,N/A,,Mostly Cloudy,0,2012-09-06 05:51:00
2:51 AM,66.9,66.0,97,29.91,4.0,Calm,Calm,-,0.00,,Mostly Cloudy,0,2012-09-06 06:51:00
3:48 AM,66.2,66.2,100,29.95,4.0,Calm,Calm,-,0.00,Rain,Light Rain,0,2012-09-06 07:48:00
3:51 AM,66.9,66.0,97,29.91,4.0,Calm,Calm,-,0.00,,Overcast,0,2012-09-06 07:51:00
4:25 AM,68.0,66.2,94,29.95,6.0,Calm,Calm,-,0.00,Rain,Light Rain,0,2012-09-06 08:25:00
4:51 AM,68.0,66.0,93,29.91,6.0,Calm,Calm,-,0.00,,Overcast,0,2012-09-06 08:51:00
5:01 AM,66.2,66.2,100,29.95,5.0,Calm,Calm,-,N/A,,Overcast,0,2012-09-06 09:01:00
5:15 AM,66.2,66.2,100,29.95,5.0,Calm,Calm,-,N/A,,Overcast,0,2012-09-06 09:15:00
5:25 AM,66.2,66.2,100,29.95,5.0,Calm,Calm,-,N/A,,Overcast,0,2012-09-06 09:25:00
5:51 AM,66.9,64.9,93,29.91,4.0,Calm,Calm,-,N/A,,Overcast,0,2012-09-06 09:51:00
6:04 AM,68.0,66.2,94,29.96,6.0,Calm,Calm,-,N/A,,Overcast,0,2012-09-06 10:04:00
6:11 AM,66.2,66.2,100,29.96,5.0,Calm,Calm,-,N/A,,Overcast,0,2012-09-06 10:11:00
6:51 AM,68.0,66.0,93,29.93,7.0,Calm,Calm,-,0.00,Rain,Light Rain,0,2012-09-06 10:51:00
7:10 AM,66.2,66.2,100,29.97,5.0,Calm,Calm,-,0.00,Rain,Light Rain,0,2012-09-06 11:10:00
7:22 AM,68.0,66.2,94,29.98,3.0,Calm,Calm,-,0.01,Rain,Light Rain,0,2012-09-06 11:22:00
7:33 AM,68.0,66.2,94,29.98,5.0,Calm,Calm,-,0.01,,Overcast,0,2012-09-06 11:33:00
7:51 AM,68.0,66.9,96,29.96,4.0,Calm,Calm,-,0.01,Rain,Light Rain,0,2012-09-06 11:51:00
8:51 AM,69.1,66.9,93,29.97,8.0,Calm,Calm,-,0.00,,Overcast,0,2012-09-06 12:51:00
9:51 AM,71.1,66.9,87,29.99,9.0,Calm,Calm,-,N/A,,Mostly Cloudy,0,2012-09-06 13:51:00
10:10 AM,71.6,66.2,83,30.02,9.0,Calm,Calm,-,N/A,,Overcast,0,2012-09-06 14:10:00
10:51 AM,73.9,66.9,79,29.99,10.0,Calm,Calm,-,N/A,,Scattered Clouds,0,2012-09-06 14:51:00
11:51 AM,78.1,66.9,68,29.98,10.0,Variable,3.5,-,0.01,,Partly Cloudy,0,2012-09-06 15:51:00
12:51 PM,81.0,64.9,58,29.97,10.0,Calm,Calm,-,0.01,,Clear,0,2012-09-06 16:51:00
1:51 PM,82.9,64.9,54,29.96,10.0,North,4.6,-,0.01,,Clear,10,2012-09-06 17:51:00
2:51 PM,84.9,64.0,49,29.95,10.0,WNW,6.9,-,0.01,,Clear,290,2012-09-06 18:51:00
3:51 PM,82.9,64.0,53,29.95,10.0,NW,6.9,-,N/A,,Clear,310,2012-09-06 19:51:00
4:51 PM,82.9,62.1,49,29.94,10.0,NW,4.6,-,N/A,,Clear,320,2012-09-06 20:51:00
5:51 PM,82.9,62.1,49,29.94,10.0,West,5.8,-,N/A,,Clear,280,2012-09-06 21:51:00
6:51 PM,81.0,64.0,56,29.94,10.0,Calm,Calm,-,N/A,,Clear,0,2012-09-06 22:51:00
7:51 PM,72.0,66.0,81,29.96,10.0,Calm,Calm,-,N/A,,Clear,0,2012-09-06 23:51:00
8:51 PM,69.1,64.9,87,29.99,10.0,Calm,Calm,-,N/A,,Clear,0,2012-09-07 00:51:00
9:51 PM,66.0,64.0,93,30.00,7.0,Calm,Calm,-,N/A,,Clear,0,2012-09-07 01:51:00
10:51 PM,66.9,64.0,90,30.01,9.0,Calm,Calm,-,N/A,,Overcast,0,2012-09-07 02:51:00
11:51 PM,64.9,63.0,93,30.00,5.0,Calm,Calm,-,N/A,,Clear,0,2012-09-07 03:51:00